sat.trackr.live / text

‹ back to catalog

YAOGAN-31 04A

NORAD 47854 · 2021-020A

PAYLOAD ACTIVE UNKNOWN

§ Identity

Operator
Country
PRC
Launch date
2021-03-13
Launch site
JSC
Launch vehicle
Mass (kg)
RCS (m²)

External: N2YO · Heavens-Above · Gunter

§ Orbital elements

Epoch: 2026-09-20T21:20:53.181024Z

Period
107.03 min
Inclination
63.4076°
Eccentricity
0.0183230
Mean motion
13.45453227 rev/d
Perigee alt
952.2 km
Apogee alt
1,225.9 km
Semi-major
7,467.2 km
B*
1.7327e-4
RAAN
12.0502°
Arg perigee
0.7852°
Mean anomaly
359.3427°
Rev number
27,134

§ Raw data

YAOGAN-31 04A1 47854U 21020A   26263.88950441  .00000023  00000+0  17327-3 0  99982 47854  63.4076  12.0502 0183230   0.7852 359.3427 13.45453227271341

JSON: /api/v1/satellites/47854 · /tle

For live sub-satellite position, see the globe view (requires WebGL).

§ Visibility from observer

Set your observer location to see the next 7 days of passes ≥ 10°. The values pass through the URL so the page stays shareable.

No JS? Fill the form by hand. The geolocation button needs JavaScript.